Hourly Data Report for October 03, 2016

All times are specified in Local Standard Time (LST). Add 1 hour to adjust for Daylight Saving Time where and when it is observed.

MONCTON INTL A
NEW BRUNSWICK

46°06'44.000" N
64°40'43.000" W
70.70 m
8103201
71705
YQM

Download Data

Hourly Data (October 2016)
Hourly Data Report for October 3, 2016
Temp Definition
°C
Dew Point Temp Definition
°C
Rel Hum Definition
%
Wind Dir Definition
10's deg

Wind Spd Definition
km/h
Visibility Definition
km
Stn Press Definition
kPa
Hmdx Definition


Wind Chill Definition


Weather Definition


TIME
00:00 Legend Double Dagger 12.2 10.8 91 21 14 24.1 100.41     LegendNANA
01:00 Legend Double Dagger 11.8 11.2 96 22 12 12.9 100.36     Drizzle
02:00 Legend Double Dagger 11.8 11.2 96 23 17 19.3 100.29     Cloudy
03:00 Legend Double Dagger 11.3 10.9 97 24 15 19.3 100.20     LegendNANA
04:00 Legend Double Dagger 11.3 10.7 96 24 16 24.1 100.21     LegendNANA
05:00 Legend Double Dagger 11.1 10.5 96 24 16 24.1 100.21     Cloudy
06:00 Legend Double Dagger 10.8 10.2 96 23 14 24.1 100.29     LegendNANA
07:00 Legend Double Dagger 11.6 9.7 88 32 14 24.1 100.38     LegendNANA
08:00 Legend Double Dagger 11.5 9.1 85 36 31 24.1 100.48     Cloudy
09:00 Legend Double Dagger 10.9 7.4 79 2 34 24.1 100.59     LegendNANA
10:00 Legend Double Dagger 10.3 5.7 73 1 34 24.1 100.73     LegendNANA
11:00 Legend Double Dagger 11.6 4.4 61 1 34 24.1 100.85     Mostly Cloudy
12:00 Legend Double Dagger 11.4 4.0 60 1 33 24.1 100.93     LegendNANA
13:00 Legend Double Dagger 11.0 3.1 58 36 32 24.1 100.99     LegendNANA
14:00 Legend Double Dagger 10.0 2.4 59 1 27 24.1 101.06     Mostly Cloudy
15:00 Legend Double Dagger 9.3 2.0 60 1 28 24.1 101.14     LegendNANA
16:00 Legend Double Dagger 9.4 1.1 56 2 28 24.1 101.20     LegendNANA
17:00 Legend Double Dagger 8.4 1.1 60 2 19 24.1 101.26     Clear
18:00 Legend Double Dagger 5.3 1.1 74 35 9 24.1 101.31     LegendNANA
19:00 Legend Double Dagger 3.6 1.0 83 1 7 24.1 101.36     LegendNANA
20:00 Legend Double Dagger 4.1 1.1 81 31 3 24.1 101.47     Clear
21:00 Legend Double Dagger 4.3 1.7 83 36 3 24.1 101.52     LegendNANA
22:00 Legend Double Dagger 2.5 1.0 90 19 7 24.1 101.60     LegendNANA
23:00 Legend Double Dagger 1.9 1.0 94 20 12 24.1 101.62     Clear

Notes on Data Quality.

Legend

  • E = Estimated
  • M = Missing
  • NA = Not Available
  • ‡ = Partner data that is not subject to review by the National Climate Archives
Date modified: